"startDT [UTC]","vpos","CH4 [ppm]","stdev(CH4) [ppm]","CO2 [ppm]","stdev(CO2) [ppm]","H2O [ppm]","stdev(H2O)","p_LGR [torr]","T_LGR [C]","mt1_LGR [us]","mt2_LGR [us]","T_ECpre [C]","T_EC1 [C]","T_EC2 [C]","p_inlet [hPa]","p_in [hPa]","p_out [hPa]","T_inlet [C]","RH_inlet [%]","dwpt_inlet [C]","T_vent [C]","RH_vent [%]","dwpt_vent [C]","flow_vent [l min-1]","flow_inlet [l min-1]","dwpt_sample [C]","T_room [C]"
2012-02-17 00:00:00,0.0,1.9705,0.0009,405.53,0.35,82.6,30.0,138.13,28.54,24.60,36.33,0.04,-272.74,-272.74,-50,563,-930,23.1,3.3,-23.3,23.0,3.4,-23.0,5.73,2.46,-26.6,27.1
2012-02-17 00:01:00,0.0,1.9707,0.0011,405.48,0.41,93.5,31.2,138.13,28.54,24.60,36.33,0.04,-272.73,-272.74,-50,563,-929,23.1,3.3,-23.3,23.0,3.4,-23.0,5.73,2.37,-26.5,27.3
2012-02-17 00:02:00,0.0,1.9708,0.0010,405.51,0.42,106.5,43.6,138.12,28.55,24.60,36.33,0.04,-272.74,-272.74,-50,563,-930,23.1,3.3,-23.2,23.1,3.5,-22.9,5.73,2.32,-26.4,27.4
2012-02-17 00:03:00,0.0,1.9701,0.0009,405.45,0.34,110.7,34.1,138.12,28.56,24.60,36.33,0.04,-272.74,-272.74,-50,563,-930,23.2,3.3,-23.2,23.1,3.4,-22.9,5.73,2.47,-26.3,27.5
2012-02-17 00:04:00,0.0,1.9703,0.0009,405.42,0.47,119.7,31.9,138.11,28.57,24.60,36.34,0.04,-272.74,-272.73,-49,564,-929,23.2,3.3,-23.2,23.1,3.4,-22.8,5.73,2.26,-26.2,27.6
2012-02-17 00:05:00,0.0,1.9711,0.0009,405.46,0.34,126.3,35.2,138.11,28.58,24.60,36.34,0.04,-272.74,-272.74,-50,564,-929,23.2,3.3,-23.2,23.2,3.4,-22.8,5.73,2.50,-26.1,27.7
2012-02-17 00:06:00,0.0,1.9713,0.0008,405.43,0.32,143.4,37.0,138.10,28.60,24.60,36.34,0.04,-272.74,-272.74,-50,564,-929,23.3,3.3,-23.3,23.2,3.4,-22.8,5.73,2.26,-26.1,27.8
2012-02-17 00:07:00,0.0,1.9706,0.0010,405.58,0.37,138.6,28.2,138.10,28.61,24.60,36.33,0.04,-272.74,-272.73,-50,563,-929,23.3,3.3,-23.3,23.2,3.4,-22.9,5.73,2.47,-26.0,27.9
2012-02-17 00:08:00,0.0,1.9711,0.0009,405.60,0.32,148.3,38.0,138.10,28.63,24.61,36.34,0.04,-272.74,-272.74,-50,564,-929,23.3,3.3,-23.3,23.3,3.4,-22.9,5.73,2.29,-25.9,28.0
2012-02-17 00:09:00,0.0,1.9729,0.0012,405.79,0.41,154.9,35.6,138.10,28.65,24.60,36.33,0.04,-272.74,-272.74,-49,564,-929,23.3,3.3,-23.3,23.3,3.4,-22.9,5.73,2.44,-25.8,28.1
2012-02-17 00:10:00,0.0,1.9749,0.0011,405.94,0.39,164.0,37.2,138.09,28.67,24.60,36.34,0.04,-272.74,-272.74,-50,564,-929,23.4,3.3,-23.3,23.3,3.4,-22.9,5.73,2.32,-25.8,28.1
2012-02-17 00:11:00,0.0,1.9754,0.0011,406.19,0.36,163.0,31.7,138.09,28.69,24.61,36.33,0.04,-272.74,-272.73,-49,564,-929,23.4,3.2,-23.3,23.4,3.4,-23.0,5.73,2.42,-25.7,28.2
2012-02-17 00:12:00,0.0,1.9768,0.0009,406.08,0.35,165.2,30.4,138.09,28.71,24.60,36.34,0.04,-272.74,-272.74,-50,564,-930,23.5,3.2,-23.4,23.4,3.4,-22.9,5.73,2.38,-25.7,27.9
2012-02-17 00:13:00,0.0,1.9763,0.0009,406.15,0.36,167.9,30.9,138.10,28.72,24.60,36.34,0.04,-272.74,-272.74,-50,564,-930,23.5,3.2,-23.4,23.4,3.3,-23.0,5.73,2.29,-25.7,27.5
2012-02-17 00:14:00,0.0,1.9759,0.0009,406.18,0.35,151.5,35.7,138.10,28.73,24.60,36.33,0.04,-272.73,-272.74,-50,565,-930,23.5,3.2,-23.5,23.4,3.3,-23.0,5.73,2.37,-25.8,27.2
2012-02-17 00:15:00,0.0,1.9744,0.0009,405.90,0.34,147.2,33.0,138.11,28.73,24.61,36.34,0.04,-272.74,-272.74,-50,565,-930,23.5,3.2,-23.4,23.3,3.3,-23.1,5.73,2.40,-25.9,27.1
2012-02-17 00:16:00,0.0,1.9736,0.0010,405.83,0.35,139.9,31.4,138.11,28.73,24.61,36.34,0.04,-272.74,-272.74,-50,565,-930,23.4,3.2,-23.4,23.3,3.3,-23.1,5.73,2.39,-26.0,26.9
2012-02-17 00:17:00,0.0,1.9723,0.0012,405.59,0.36,126.7,39.0,138.12,28.72,24.60,36.34,0.04,-272.74,-272.74,-50,565,-930,23.4,3.2,-23.4,23.3,3.4,-23.0,5.73,2.39,-26.1,26.8
2012-02-17 00:18:00,0.0,1.9702,0.0013,405.48,0.35,123.7,35.2,138.12,28.71,24.60,36.33,0.04,-272.74,-272.74,-50,565,-930,23.3,3.2,-23.4,23.2,3.4,-23.0,5.73,2.39,-26.2,26.6
2012-02-17 00:19:00,0.0,1.9732,0.0012,405.76,0.34,110.3,35.9,138.13,28.70,24.61,36.34,0.04,-272.74,-272.74,-50,565,-930,23.3,3.3,-23.4,23.2,3.4,-22.9,5.73,2.38,-26.3,26.4
2012-02-17 00:20:00,0.0,1.9704,0.0009,405.52,0.41,93.5,30.1,138.13,28.68,24.61,36.34,0.04,-272.74,-272.73,-50,565,-930,23.3,3.3,-23.4,23.1,3.4,-23.0,5.73,2.38,-26.4,26.2
2012-02-17 00:21:00,0.0,1.9704,0.0008,405.70,0.42,85.7,37.9,138.13,28.66,24.61,36.33,0.04,-272.74,-272.74,-50,565,-930,23.2,3.3,-23.3,23.1,3.4,-23.0,5.73,2.38,-26.5,26.2
2012-02-17 00:22:00,0.0,1.9704,0.0010,405.60,0.45,76.4,36.1,138.14,28.64,24.60,36.33,0.04,-272.74,-272.73,-50,565,-930,23.2,3.3,-23.3,23.1,3.4,-23.0,5.73,2.38,-26.5,26.3
2012-02-17 00:23:00,0.0,1.9698,0.0011,405.58,0.42,68.9,33.8,138.14,28.62,24.60,36.34,0.04,-272.74,-272.73,-50,564,-930,23.1,3.3,-23.3,23.0,3.4,-23.0,5.73,2.37,-26.6,26.1
2012-02-17 00:24:00,0.0,1.9686,0.0011,405.65,0.37,70.1,31.4,138.14,28.60,24.61,36.33,0.04,-272.73,-272.74,-50,564,-930,23.1,3.3,-23.2,23.0,3.4,-23.0,5.73,2.39,-26.7,26.2
2012-02-17 00:25:00,0.0,1.9685,0.0010,405.70,0.41,63.4,29.0,138.14,28.58,24.60,36.33,0.04,-272.74,-272.74,-50,564,-930,23.1,3.3,-23.3,23.0,3.5,-22.9,5.73,2.45,-26.7,26.6
2012-02-17 00:26:00,0.0,1.9691,0.0010,405.56,0.38,71.5,29.6,138.14,28.56,24.60,36.33,0.04,-272.74,-272.74,-50,564,-930,23.1,3.3,-23.2,23.0,3.5,-22.9,5.73,2.36,-26.6,27.0
2012-02-17 00:27:00,0.0,1.9698,0.0009,405.54,0.40,88.7,33.1,138.13,28.55,24.60,36.33,0.04,-272.73,-272.74,-50,564,-930,23.1,3.3,-23.2,23.0,3.4,-22.9,5.73,2.28,-26.5,27.2
2012-02-17 00:28:00,0.0,1.9704,0.0008,405.47,0.40,89.1,30.1,138.13,28.55,24.60,36.33,0.04,-272.74,-272.73,-50,564,-930,23.2,3.3,-23.2,23.1,3.4,-22.9,5.73,2.49,-26.4,27.3
2012-02-17 00:29:00,0.0,1.9705,0.0009,405.37,0.42,99.9,34.6,138.12,28.56,24.60,36.33,0.04,-272.74,-272.74,-50,563,-930,23.2,3.3,-23.2,23.1,3.4,-22.9,5.73,2.28,-26.3,27.5
2012-02-17 00:30:00,0.0,1.9703,0.0009,405.32,0.40,117.2,29.0,138.12,28.57,24.60,36.32,0.04,-272.74,-272.74,-50,564,-930,23.2,3.3,-23.3,23.1,3.4,-22.9,5.73,2.43,-26.2,27.6
2012-02-17 00:31:00,0.0,1.9688,0.0010,405.24,0.41,119.8,35.4,138.11,28.58,24.61,36.33,0.04,-272.73,-272.74,-50,564,-929,23.3,3.3,-23.3,23.2,3.4,-22.9,5.73,2.36,-26.1,27.7
2012-02-17 00:32:00,0.0,1.9690,0.0009,405.27,0.36,131.4,37.5,138.11,28.60,24.60,36.33,0.04,-272.73,-272.74,-50,564,-930,23.3,3.3,-23.3,23.2,3.4,-22.9,5.73,2.37,-26.1,27.8
2012-02-17 00:33:00,0.0,1.9690,0.0010,405.25,0.36,136.3,37.6,138.10,28.61,24.60,36.33,0.04,-272.74,-272.74,-49,564,-929,23.3,3.3,-23.3,23.2,3.4,-22.9,5.73,2.41,-26.0,27.9
2012-02-17 00:34:00,0.0,1.9677,0.0008,405.12,0.35,147.5,37.6,138.10,28.63,24.61,36.34,0.04,-272.74,-272.73,-50,564,-929,23.3,3.3,-23.2,23.3,3.4,-22.9,5.73,2.33,-25.9,28.0
2012-02-17 00:35:00,0.0,1.9674,0.0008,405.08,0.38,145.7,32.3,138.10,28.65,24.61,36.34,0.04,-272.74,-272.74,-49,564,-929,23.4,3.3,-23.2,23.3,3.4,-22.9,5.73,2.43,-25.8,28.0
2012-02-17 00:36:00,0.0,1.9680,0.0010,405.36,0.37,156.1,29.1,138.09,28.67,24.60,36.33,0.04,-272.74,-272.73,-50,564,-929,23.4,3.3,-23.2,23.3,3.4,-22.9,5.73,2.31,-25.8,28.1
2012-02-17 00:37:00,0.0,1.9691,0.0008,405.34,0.32,162.9,33.8,138.09,28.69,24.60,36.34,0.04,-272.74,-272.74,-50,564,-929,23.5,3.3,-23.2,23.4,3.4,-22.8,5.73,2.45,-25.7,28.2
2012-02-17 00:38:00,0.0,1.9698,0.0011,405.44,0.38,165.6,31.1,138.09,28.71,24.60,36.34,0.04,-272.74,-272.74,-49,564,-929,23.5,3.3,-23.2,23.4,3.4,-22.8,5.73,2.28,-25.6,28.1
2012-02-17 00:39:00,0.0,1.9724,0.0012,405.67,0.34,160.6,31.4,138.09,28.72,24.60,36.34,0.04,-272.74,-272.73,-50,565,-930,23.5,3.2,-23.2,23.4,3.4,-22.8,5.73,2.48,-25.6,27.6
2012-02-17 00:40:00,0.0,1.9743,0.0010,405.88,0.32,154.6,38.1,138.10,28.74,24.60,36.33,0.04,-272.73,-272.73,-50,565,-930,23.5,3.2,-23.3,23.4,3.4,-22.9,5.73,2.41,-25.7,27.3
2012-02-17 00:41:00,0.0,1.9736,0.0009,405.77,0.38,147.1,31.6,138.10,28.74,24.60,36.34,0.04,-272.73,-272.74,-50,565,-930,23.5,3.2,-23.4,23.4,3.4,-22.9,5.73,2.37,-25.9,27.0
2012-02-17 00:42:00,0.0,1.9744,0.0010,405.74,0.41,138.9,33.6,138.11,28.74,24.60,36.33,0.04,-272.74,-272.74,-50,565,-930,23.5,3.2,-23.4,23.3,3.4,-23.0,5.73,2.36,-25.9,26.9
2012-02-17 00:43:00,0.0,1.9750,0.0011,405.89,0.31,125.5,34.6,138.12,28.73,24.61,36.33,0.04,-272.74,-272.74,-50,565,-930,23.4,3.2,-23.4,23.3,3.4,-23.0,5.73,2.37,-25.9,26.7
2012-02-17 00:44:00,0.0,1.9757,0.0010,406.02,0.39,122.2,30.1,138.12,28.72,24.61,36.33,0.04,-272.73,-272.74,-50,565,-930,23.4,3.2,-23.4,23.3,3.4,-23.0,5.73,2.37,-26.0,26.6
2012-02-17 00:45:00,0.0,1.9763,0.0009,406.00,0.32,104.6,33.8,138.13,28.70,24.60,36.34,0.04,-272.73,-272.74,-50,565,-930,23.3,3.2,-23.5,23.2,3.4,-23.1,5.73,2.37,-26.1,26.5
2012-02-17 00:46:00,0.0,1.9764,0.0010,405.98,0.37,87.3,37.5,138.13,28.69,24.60,36.33,0.04,-272.73,-272.74,-50,565,-930,23.3,3.2,-23.5,23.2,3.4,-23.1,5.73,2.38,-26.2,26.4
2012-02-17 00:47:00,0.0,1.9763,0.0011,406.04,0.41,93.7,35.1,138.13,28.67,24.60,36.33,0.04,-272.74,-272.74,-50,565,-930,23.2,3.2,-23.5,23.1,3.4,-23.1,5.73,2.38,-26.3,26.2
2012-02-17 00:48:00,0.0,1.9758,0.0010,406.18,0.40,78.8,34.0,138.14,28.65,24.60,36.33,0.04,-272.74,-272.74,-50,565,-930,23.2,3.3,-23.4,23.1,3.4,-23.1,5.73,2.38,-26.4,26.0
2012-02-17 00:49:00,0.0,1.9760,0.0009,406.16,0.40,76.2,38.5,138.14,28.63,24.60,36.33,0.04,-272.74,-272.74,-50,565,-930,23.1,3.3,-23.4,23.0,3.4,-23.1,5.73,2.38,-26.5,26.0
2012-02-17 00:50:00,0.0,1.9753,0.0009,406.24,0.40,67.5,33.2,138.14,28.61,24.60,36.33,0.04,-272.74,-272.73,-50,564,-930,23.1,3.3,-23.4,23.0,3.4,-23.1,5.73,2.37,-26.5,26.0
2012-02-17 00:51:00,0.0,1.9744,0.0011,406.08,0.44,66.8,28.8,138.14,28.59,24.60,36.33,0.04,-272.73,-272.74,-50,564,-930,23.1,3.3,-23.4,23.0,3.4,-23.1,5.73,2.31,-26.5,26.5
2012-02-17 00:52:00,0.0,1.9734,0.0010,405.90,0.39,72.0,38.7,138.14,28.57,24.60,36.34,0.04,-272.73,-272.74,-50,564,-930,23.1,3.3,-23.3,23.0,3.4,-23.0,5.73,2.40,-26.5,26.9
2012-02-17 00:53:00,0.0,1.9745,0.0011,405.86,0.42,82.8,30.0,138.13,28.57,24.60,36.33,0.04,-272.74,-272.73,-50,564,-930,23.1,3.3,-23.3,23.0,3.4,-23.0,5.73,2.46,-26.4,27.1
2012-02-17 00:54:00,0.0,1.9763,0.0012,406.04,0.30,88.3,32.3,138.13,28.56,24.60,36.33,0.04,-272.73,-272.74,-50,564,-930,23.2,3.3,-23.3,23.1,3.4,-23.0,5.73,2.26,-26.3,27.3
2012-02-17 00:55:00,0.0,1.9783,0.0010,406.14,0.30,105.7,33.2,138.12,28.57,24.60,36.33,0.04,-272.74,-272.74,-50,564,-930,23.2,3.3,-23.4,23.1,3.4,-23.0,5.73,2.47,-26.2,27.4
2012-02-17 00:56:00,0.0,1.9787,0.0009,406.26,0.34,118.1,35.7,138.12,28.57,24.61,36.33,0.04,-272.74,-272.74,-50,564,-929,23.2,3.3,-23.4,23.1,3.4,-23.0,5.73,2.32,-26.1,27.6
2012-02-17 00:57:00,0.0,1.9787,0.0010,406.24,0.34,119.7,30.0,138.11,28.59,24.60,36.33,0.04,-272.74,-272.74,-50,564,-930,23.3,3.2,-23.4,23.2,3.4,-23.1,5.73,2.39,-26.0,27.7
2012-02-17 00:58:00,0.0,1.9787,0.0011,406.14,0.41,127.9,29.2,138.11,28.60,24.60,36.33,0.04,-272.74,-272.73,-50,564,-930,23.3,3.2,-23.5,23.2,3.4,-23.1,5.73,2.40,-25.9,27.8
2012-02-17 00:59:00,0.0,1.9783,0.0009,406.08,0.31,135.1,30.3,138.11,28.61,24.60,36.33,0.04,-272.74,-272.74,-49,564,-930,23.3,3.2,-23.5,23.2,3.3,-23.2,5.73,2.32,-25.9,27.9
2012-02-17 01:00:00,0.0,1.9789,0.0009,406.26,0.35,144.5,39.8,138.10,28.63,24.60,36.33,0.04,-272.74,-272.73,-50,564,-930,23.3,3.2,-23.5,23.3,3.3,-23.1,5.73,2.45,-25.8,27.9
2012-02-17 01:01:00,0.0,1.9790,0.0009,406.31,0.37,151.1,31.4,138.10,28.65,24.60,36.33,0.04,-272.73,-272.73,-49,564,-929,23.4,3.2,-23.5,23.3,3.3,-23.1,5.73,2.29,-25.7,28.0
2012-02-17 01:02:00,0.0,1.9793,0.0008,406.50,0.43,152.8,38.0,138.10,28.67,24.60,36.33,0.04,-272.74,-272.73,-50,564,-929,23.4,3.2,-23.5,23.3,3.3,-23.2,5.73,2.47,-25.6,28.1
2012-02-17 01:03:00,0.0,1.9795,0.0010,406.54,0.35,160.3,28.4,138.09,28.69,24.61,36.33,0.04,-272.74,-272.74,-50,564,-930,23.5,3.2,-23.5,23.4,3.3,-23.1,5.73,2.27,-25.6,28.2
2012-02-17 01:04:00,0.0,1.9800,0.0009,406.44,0.37,158.4,31.2,138.09,28.71,24.61,36.34,0.04,-272.74,-272.74,-49,564,-929,23.5,3.2,-23.6,23.4,3.3,-23.1,5.73,2.49,-25.5,28.1
2012-02-17 01:05:00,0.0,1.9799,0.0009,406.45,0.35,165.8,35.6,138.10,28.72,24.60,36.34,0.04,-272.73,-272.73,-50,564,-930,23.5,3.2,-23.5,23.4,3.3,-23.1,5.73,2.31,-25.5,27.6
2012-02-17 01:06:00,0.0,1.9801,0.0008,406.58,0.39,159.7,35.3,138.10,28.74,24.60,36.33,0.04,-272.74,-272.74,-50,565,-930,23.5,3.2,-23.6,23.4,3.3,-23.1,5.73,2.32,-25.6,27.3
2012-02-17 01:07:00,0.0,1.9803,0.0009,406.52,0.39,152.1,29.3,138.11,28.74,24.60,36.34,0.04,-272.74,-272.74,-50,565,-930,23.5,3.2,-23.5,23.4,3.3,-23.1,5.73,2.37,-25.7,27.0
2012-02-17 01:08:00,0.0,1.9799,0.0011,406.47,0.36,142.2,34.0,138.11,28.74,24.61,36.34,0.04,-272.74,-272.73,-50,565,-930,23.4,3.2,-23.6,23.3,3.3,-23.2,5.73,2.38,-25.8,26.7
2012-02-17 01:09:00,0.0,1.9805,0.0010,406.57,0.41,134.2,39.9,138.12,28.73,24.60,36.33,0.04,-272.74,-272.73,-50,565,-930,23.4,3.2,-23.6,23.3,3.3,-23.2,5.73,2.38,-25.9,26.6
2012-02-17 01:10:00,0.0,1.9809,0.0011,406.65,0.39,122.0,35.3,138.12,28.72,24.60,36.33,0.04,-272.73,-272.74,-50,565,-930,23.3,3.2,-23.7,23.3,3.3,-23.2,5.73,2.38,-26.0,26.4
2012-02-17 01:11:00,0.0,1.9805,0.0011,406.58,0.46,115.3,31.2,138.13,28.71,24.60,36.34,0.04,-272.73,-272.74,-50,565,-930,23.3,3.2,-23.7,23.2,3.3,-23.2,5.73,2.38,-26.1,26.4
2012-02-17 01:12:00,0.0,1.9804,0.0011,406.69,0.34,97.3,28.7,138.13,28.69,24.61,36.33,0.04,-272.74,-272.73,-50,565,-930,23.3,3.2,-23.6,23.2,3.3,-23.2,5.73,2.38,-26.2,26.2
2012-02-17 01:13:00,0.0,1.9810,0.0008,406.75,0.36,95.4,31.7,138.13,28.67,24.61,36.34,0.04,-272.74,-272.74,-50,565,-930,23.2,3.2,-23.6,23.1,3.3,-23.2,5.73,2.38,-26.3,26.1
2012-02-17 01:14:00,0.0,1.9807,0.0010,406.83,0.42,81.3,34.4,138.14,28.65,24.60,36.33,0.04,-272.74,-272.74,-50,564,-930,23.2,3.2,-23.6,23.1,3.3,-23.3,5.73,2.38,-26.4,26.1
2012-02-17 01:15:00,0.0,1.9807,0.0007,406.87,0.35,84.1,29.5,138.14,28.63,24.60,36.33,0.04,-272.74,-272.74,-50,564,-930,23.1,3.2,-23.6,23.0,3.3,-23.3,5.73,2.37,-26.4,26.1
2012-02-17 01:16:00,0.0,1.9795,0.0012,406.75,0.42,69.7,36.5,138.14,28.60,24.60,36.33,0.04,-272.74,-272.74,-50,564,-930,23.1,3.2,-23.6,23.0,3.3,-23.3,5.73,2.39,-26.5,26.1
2012-02-17 01:17:00,0.0,1.9800,0.0009,406.83,0.45,75.5,38.1,138.14,28.58,24.60,36.33,0.04,-272.74,-272.74,-50,564,-930,23.1,3.2,-23.6,23.0,3.3,-23.3,5.73,2.44,-26.5,26.5
2012-02-17 01:18:00,0.0,1.9805,0.0009,406.82,0.38,83.8,28.8,138.14,28.57,24.60,36.33,0.04,-272.73,-272.73,-50,564,-930,23.1,3.2,-23.6,23.0,3.3,-23.3,5.73,2.46,-26.5,26.9
2012-02-17 01:19:00,0.0,1.9806,0.0009,406.82,0.41,87.3,32.7,138.13,28.56,24.60,36.33,0.04,-272.74,-272.73,-50,564,-930,23.1,3.2,-23.6,23.0,3.3,-23.3,5.73,2.28,-26.4,27.1
2012-02-17 01:20:00,0.0,1.9800,0.0008,406.58,0.46,86.9,35.7,138.13,28.56,24.60,36.33,0.04,-272.74,-272.73,-50,564,-930,23.2,3.2,-23.6,23.1,3.3,-23.3,5.73,2.40,-26.2,27.3
2012-02-17 01:21:00,0.0,1.9809,0.0010,406.64,0.40,99.7,38.3,138.12,28.56,24.61,36.33,0.04,-272.73,-272.73,-50,564,-930,23.2,3.2,-23.6,23.1,3.3,-23.3,5.73,2.42,-26.2,27.4
2012-02-17 01:22:00,0.0,1.9815,0.0009,406.73,0.36,105.0,38.2,138.12,28.57,24.60,36.33,0.04,-272.73,-272.73,-50,564,-930,23.2,3.2,-23.6,23.1,3.3,-23.3,5.73,2.28,-26.1,27.6
2012-02-17 01:23:00,0.0,1.9818,0.0013,406.74,0.35,126.1,28.2,138.11,28.58,24.60,36.33,0.04,-272.74,-272.74,-49,564,-930,23.2,3.2,-23.7,23.2,3.3,-23.3,5.73,2.49,-26.0,27.6
2012-02-17 01:24:00,0.0,1.9816,0.0010,406.63,0.45,131.4,32.6,138.11,28.59,24.60,36.33,0.04,-272.74,-272.74,-50,564,-930,23.3,3.2,-23.7,23.2,3.3,-23.3,5.73,2.26,-25.9,27.7
2012-02-17 01:25:00,0.0,1.9821,0.0009,406.79,0.33,128.2,31.2,138.11,28.61,24.60,36.33,0.04,-272.73,-272.74,-50,564,-929,23.3,3.1,-23.8,23.2,3.3,-23.3,5.73,2.48,-25.9,27.8
2012-02-17 01:26:00,0.0,1.9824,0.0009,406.87,0.31,144.5,32.7,138.10,28.63,24.60,36.33,0.04,-272.73,-272.74,-50,563,-929,23.3,3.1,-23.7,23.2,3.3,-23.4,5.73,2.28,-25.8,27.9
2012-02-17 01:27:00,0.0,1.9834,0.0011,406.90,0.36,151.0,31.4,138.10,28.65,24.60,36.33,0.04,-272.74,-272.74,-50,564,-929,23.4,3.1,-23.8,23.3,3.3,-23.4,5.73,2.45,-25.7,28.0
2012-02-17 01:28:00,0.0,1.9834,0.0008,406.94,0.35,157.7,36.2,138.10,28.67,24.60,36.33,0.04,-272.74,-272.73,-49,564,-929,23.4,3.1,-23.8,23.3,3.2,-23.4,5.73,2.33,-25.6,28.1
2012-02-17 01:29:00,0.0,1.9839,0.0009,407.02,0.42,159.2,33.8,138.09,28.69,24.60,36.33,0.04,-272.73,-272.74,-50,564,-929,23.4,3.1,-23.8,23.4,3.2,-23.4,5.73,2.40,-25.6,28.1
2012-02-17 01:30:00,0.0,1.9840,0.0009,407.06,0.35,165.8,29.2,138.09,28.71,24.60,36.34,0.04,-272.74,-272.74,-49,564,-930,23.5,3.1,-23.9,23.4,3.2,-23.5,5.73,2.37,-25.5,28.0
2012-02-17 01:31:00,0.0,1.9836,0.0009,407.03,0.41,161.5,33.2,138.09,28.72,24.60,36.33,0.04,-272.74,-272.73,-49,564,-930,23.5,3.1,-23.8,23.4,3.2,-23.5,5.73,2.30,-25.5,27.6
2012-02-17 01:32:00,0.0,1.9835,0.0010,406.92,0.33,172.8,35.0,138.10,28.73,24.60,36.33,0.04,-272.73,-272.73,-50,565,-930,23.5,3.1,-23.9,23.4,3.2,-23.5,5.73,2.41,-25.6,27.4
2012-02-17 01:33:00,0.0,1.9830,0.0009,407.05,0.37,154.8,35.0,138.10,28.74,24.61,36.33,0.04,-272.74,-272.74,-50,565,-930,23.5,3.1,-23.9,23.4,3.2,-23.5,5.73,2.42,-25.7,27.1
2012-02-17 01:34:00,0.0,1.9840,0.0010,406.91,0.33,140.9,37.3,138.11,28.74,24.61,36.34,0.04,-272.74,-272.74,-50,565,-930,23.4,3.1,-24.0,23.3,3.2,-23.6,5.73,2.41,-25.8,26.9
2012-02-17 01:35:00,0.0,1.9837,0.0008,407.03,0.35,129.9,33.5,138.12,28.73,24.60,36.33,0.04,-272.74,-272.74,-50,565,-930,23.4,3.1,-24.0,23.3,3.2,-23.6,5.73,2.40,-25.9,26.6
2012-02-17 01:36:00,0.0,1.9842,0.0010,406.95,0.38,120.3,28.4,138.12,28.72,24.60,36.33,0.04,-272.74,-272.74,-50,565,-930,23.3,3.1,-24.1,23.3,3.2,-23.6,5.73,2.39,-26.0,26.6
2012-02-17 01:37:00,0.0,1.9835,0.0010,407.02,0.32,109.8,29.5,138.13,28.70,24.61,36.34,0.04,-272.74,-272.74,-50,565,-930,23.3,3.1,-24.1,23.2,3.2,-23.6,5.73,2.39,-26.1,26.4
2012-02-17 01:38:00,0.0,1.9822,0.0012,407.01,0.35,104.7,32.1,138.13,28.69,24.61,36.33,0.04,-272.73,-272.74,-50,565,-930,23.3,3.1,-24.0,23.2,3.2,-23.5,5.73,2.38,-26.2,26.4
2012-02-17 01:39:00,0.0,1.9814,0.0007,406.85,0.33,91.9,34.2,138.13,28.67,24.60,36.34,0.04,-272.74,-272.74,-50,565,-930,23.2,3.1,-24.0,23.1,3.2,-23.6,5.73,2.38,-26.2,26.5
2012-02-17 01:40:00,0.0,1.9814,0.0010,406.86,0.45,92.1,33.9,138.14,28.65,24.61,36.34,0.04,-272.74,-272.74,-50,565,-930,23.2,3.1,-23.9,23.1,3.2,-23.6,5.73,2.38,-26.3,26.3
2012-02-17 01:41:00,0.0,1.9810,0.0010,406.97,0.36,83.1,26.1,138.14,28.63,24.60,36.33,0.04,-272.74,-272.74,-50,565,-930,23.1,3.1,-23.9,23.0,3.3,-23.5,5.73,2.38,-26.3,26.2
2012-02-17 01:42:00,0.0,1.9802,0.0010,406.83,0.43,70.0,30.5,138.14,28.60,24.60,36.33,0.04,-272.73,-272.73,-50,564,-930,23.1,3.1,-23.9,23.0,3.2,-23.6,5.73,2.38,-26.4,26.1
2012-02-17 01:43:00,0.0,1.9804,0.0009,406.86,0.46,72.5,31.9,138.14,28.58,24.61,36.33,0.04,-272.74,-272.74,-50,564,-930,23.1,3.1,-23.9,23.0,3.2,-23.6,5.73,2.39,-26.4,26.6
2012-02-17 01:44:00,0.0,1.9806,0.0007,407.00,0.39,76.1,32.9,138.14,28.57,24.61,36.33,0.04,-272.74,-272.74,-50,564,-930,23.1,3.1,-24.0,23.0,3.2,-23.7,5.73,2.29,-26.4,26.9
2012-02-17 01:45:00,0.0,1.9814,0.0009,406.86,0.39,93.2,37.4,138.13,28.56,24.60,36.32,0.04,-272.74,-272.74,-51,564,-930,23.1,3.1,-24.0,23.0,3.2,-23.7,5.73,2.36,-26.3,27.2
2012-02-17 01:46:00,0.0,1.9819,0.0010,406.78,0.36,91.3,28.4,138.13,28.56,24.60,36.33,0.04,-272.74,-272.74,-50,564,-930,23.2,3.1,-24.0,23.1,3.2,-23.7,5.73,2.47,-26.2,27.3
2012-02-17 01:47:00,0.0,1.9822,0.0010,406.72,0.36,100.0,34.9,138.12,28.56,24.60,36.33,0.04,-272.73,-272.74,-50,564,-930,23.2,3.1,-24.1,23.1,3.2,-23.7,5.73,2.26,-26.1,27.5
2012-02-17 01:48:00,0.0,1.9815,0.0009,406.62,0.39,118.0,32.4,138.12,28.57,24.61,36.33,0.04,-272.74,-272.74,-50,564,-930,23.2,3.1,-24.1,23.1,3.2,-23.8,5.73,2.48,-26.1,27.6
2012-02-17 01:49:00,0.0,1.9819,0.0010,406.60,0.39,122.8,37.5,138.11,28.58,24.60,36.33,0.04,-272.74,-272.74,-50,564,-930,23.2,3.0,-24.2,23.2,3.2,-23.7,5.73,2.30,-26.0,27.7
2012-02-17 01:50:00,0.0,1.9819,0.0008,406.64,0.39,135.0,33.8,138.11,28.60,24.60,36.33,0.04,-272.74,-272.74,-50,563,-930,23.3,3.0,-24.2,23.2,3.2,-23.8,5.73,2.42,-25.9,27.8
2012-02-17 01:51:00,0.0,1.9808,0.0010,406.60,0.38,139.7,32.1,138.10,28.62,24.60,36.34,0.04,-272.74,-272.74,-50,564,-929,23.3,3.0,-24.2,23.2,3.1,-23.8,5.73,2.36,-25.8,27.9
2012-02-17 01:52:00,0.0,1.9800,0.0010,406.53,0.35,142.7,27.6,138.10,28.63,24.60,36.33,0.04,-272.74,-272.74,-49,564,-929,23.3,3.0,-24.3,23.3,3.1,-23.8,5.73,2.36,-25.8,28.0
2012-02-17 01:53:00,0.0,1.9791,0.0012,406.47,0.36,151.7,32.3,138.10,28.65,24.60,36.33,0.04,-272.74,-272.74,-50,564,-929,23.4,3.0,-24.2,23.3,3.1,-23.9,5.73,2.41,-25.7,28.0
2012-02-17 01:54:00,0.0,1.9773,0.0009,406.32,0.42,154.5,38.5,138.10,28.67,24.60,36.33,0.04,-272.74,-272.74,-49,564,-929,23.4,3.0,-24.2,23.3,3.1,-23.8,5.73,2.32,-25.6,28.1
2012-02-17 01:55:00,0.0,1.9749,0.0011,406.05,0.42,167.3,34.6,138.09,28.69,24.61,36.33,0.04,-272.74,-272.74,-50,564,-929,23.4,3.0,-24.2,23.4,3.1,-23.7,5.73,2.44,-25.6,28.2
2012-02-17 01:56:00,0.0,1.9748,0.0012,406.13,0.37,166.4,35.3,138.09,28.71,24.60,36.33,0.04,-272.74,-272.74,-50,564,-929,23.5,3.0,-24.1,23.4,3.1,-23.7,5.73,2.29,-25.5,28.2
2012-02-17 01:57:00,0.0,1.9726,0.0011,405.80,0.35,168.7,35.8,138.09,28.73,24.61,36.34,0.04,-272.74,-272.73,-49,564,-930,23.5,3.0,-24.1,23.4,3.1,-23.7,5.73,2.48,-25.5,27.8
2012-02-17 01:58:00,0.0,1.9721,0.0008,405.81,0.38,165.5,28.8,138.10,28.74,24.60,36.34,0.04,-272.74,-272.73,-50,565,-930,23.5,3.0,-24.0,23.4,3.1,-23.7,5.73,2.38,-25.5,27.4
2012-02-17 01:59:00,0.0,1.9722,0.0009,405.67,0.33,147.0,35.6,138.10,28.75,24.60,36.34,0.04,-272.74,-272.73,-50,565,-930,23.5,3.0,-24.0,23.4,3.1,-23.7,5.73,2.34,-25.6,27.1
2012-02-17 02:00:00,0.0,1.9721,0.0010,405.69,0.41,145.9,31.6,138.11,28.75,24.61,36.34,0.04,-272.74,-272.74,-50,565,-930,23.5,3.0,-24.1,23.4,3.1,-23.7,5.73,2.35,-25.7,26.9
2012-02-17 02:01:00,0.0,1.9727,0.0010,405.69,0.42,130.8,29.2,138.11,28.74,24.61,36.34,0.04,-272.73,-272.74,-50,565,-930,23.4,3.0,-24.1,23.3,3.2,-23.6,5.73,2.36,-25.9,26.8
2012-02-17 02:02:00,0.0,1.9738,0.0010,405.72,0.33,127.6,35.4,138.12,28.73,24.60,36.33,0.04,-272.73,-272.73,-50,565,-930,23.4,3.0,-24.1,23.3,3.2,-23.7,5.73,2.37,-26.0,26.7
2012-02-17 02:03:00,0.0,1.9731,0.0017,405.93,0.42,114.7,35.8,138.12,28.72,24.61,36.33,0.04,-272.74,-272.74,-50,565,-930,23.3,3.1,-24.1,23.2,3.2,-23.7,5.73,2.38,-26.1,26.5
2012-02-17 02:04:00,0.0,1.9735,0.0011,405.94,0.34,107.2,34.9,138.13,28.70,24.61,36.33,0.04,-272.74,-272.74,-50,565,-930,23.3,3.1,-24.1,23.2,3.2,-23.7,5.73,2.38,-26.2,26.3
2012-02-17 02:05:00,0.0,1.9751,0.0011,405.98,0.38,93.9,27.7,138.13,28.68,24.60,36.33,0.04,-272.73,-272.74,-50,565,-930,23.3,3.1,-24.1,23.1,3.2,-23.7,5.73,2.38,-26.3,26.2
2012-02-17 02:06:00,0.0,1.9743,0.0014,406.03,0.37,87.3,37.8,138.14,28.66,24.60,36.33,0.04,-272.74,-272.74,-50,564,-930,23.2,3.1,-24.1,23.1,3.2,-23.7,5.73,2.39,-26.3,26.1
2012-02-17 02:07:00,0.0,1.9721,0.0008,405.88,0.40,78.8,28.6,138.14,28.64,24.60,36.33,0.04,-272.74,-272.74,-50,564,-930,23.2,3.1,-24.0,23.1,3.2,-23.7,5.73,2.38,-26.4,26.2
2012-02-17 02:08:00,0.0,1.9718,0.0009,405.90,0.38,75.4,33.6,138.14,28.62,24.61,36.34,0.04,-272.74,-272.74,-50,564,-930,23.1,3.1,-24.0,23.0,3.2,-23.6,5.73,2.39,-26.5,26.1
2012-02-17 02:09:00,0.0,1.9692,0.0024,405.69,0.51,64.1,35.2,138.14,28.60,24.60,36.33,0.04,-272.74,-272.73,-50,564,-930,23.1,3.1,-24.0,23.0,3.2,-23.7,5.73,2.33,-26.5,26.4
2012-02-17 02:10:00,0.0,1.9693,0.0009,405.66,0.43,80.4,29.4,138.14,28.58,24.60,36.33,0.04,-272.74,-272.74,-50,564,-930,23.1,3.1,-23.9,23.0,3.2,-23.6,5.73,2.37,-26.5,26.8
2012-02-17 02:11:00,0.0,1.9696,0.0010,405.46,0.40,76.9,33.2,138.13,28.57,24.60,36.34,0.04,-272.74,-272.74,-50,564,-930,23.1,3.1,-23.9,23.0,3.2,-23.7,5.73,2.49,-26.4,27.1
2012-02-17 02:12:00,0.0,1.9711,0.0013,405.63,0.33,90.9,33.4,138.13,28.57,24.60,36.33,0.04,-272.74,-272.73,-50,564,-930,23.1,3.1,-24.0,23.1,3.2,-23.6,5.73,2.30,-26.3,27.3
2012-02-17 02:13:00,0.0,1.9717,0.0009,405.65,0.45,99.6,35.4,138.12,28.57,24.61,36.33,0.04,-272.73,-272.74,-50,564,-930,23.2,3.1,-24.0,23.1,3.2,-23.7,5.73,2.38,-26.2,27.4
2012-02-17 02:14:00,0.0,1.9718,0.0010,405.64,0.30,108.5,33.1,138.12,28.57,24.60,36.33,0.04,-272.74,-272.74,-50,563,-930,23.2,3.1,-24.1,23.1,3.2,-23.7,5.73,2.43,-26.1,27.5
2012-02-17 02:15:00,0.0,1.9725,0.0009,405.63,0.41,114.4,33.6,138.11,28.58,24.60,36.33,0.04,-272.74,-272.73,-50,564,-930,23.2,3.0,-24.2,23.2,3.2,-23.7,5.73,2.28,-26.0,27.6
2012-02-17 02:16:00,0.0,1.9721,0.0011,405.62,0.43,127.9,36.7,138.11,28.60,24.60,36.33,0.04,-272.74,-272.73,-50,563,-930,23.3,3.0,-24.2,23.2,3.1,-23.8,5.73,2.49,-26.0,27.7
2012-02-17 02:17:00,0.0,1.9730,0.0011,405.67,0.33,133.9,34.3,138.11,28.61,24.60,36.34,0.04,-272.74,-272.74,-50,564,-930,23.3,3.0,-24.3,23.2,3.1,-23.9,5.73,2.26,-25.9,27.8